Year,Month,Day,Hour,Minute,Value (Times are PST for temperature in C)
2008,04,12,00,00,8.80
2008,04,12,00,01,8.90
2008,04,12,00,02,8.90
2008,04,12,00,03,8.90
2008,04,12,00,04,8.80
2008,04,12,00,05,8.80
2008,04,12,00,06,8.80
2008,04,12,00,07,8.80
2008,04,12,00,08,8.80
2008,04,12,00,09,8.80
2008,04,12,00,10,8.80
2008,04,12,00,11,8.80
2008,04,12,00,12,8.80
2008,04,12,00,13,8.80
2008,04,12,00,14,8.80
2008,04,12,00,15,8.80
2008,04,12,00,16,8.80
2008,04,12,00,17,8.80
2008,04,12,00,18,8.80
2008,04,12,00,19,8.80
2008,04,12,00,20,8.80
2008,04,12,00,21,8.80
2008,04,12,00,22,8.80
2008,04,12,00,23,8.80
2008,04,12,00,24,8.80
2008,04,12,00,25,8.80
2008,04,12,00,26,8.80
2008,04,12,00,27,8.80
2008,04,12,00,28,8.80
2008,04,12,00,29,8.80
2008,04,12,00,30,8.80
2008,04,12,00,31,8.80
2008,04,12,00,32,8.80
2008,04,12,00,33,8.90
2008,04,12,00,34,8.90
2008,04,12,00,35,8.90
2008,04,12,00,36,8.90
2008,04,12,00,37,8.90
2008,04,12,00,38,8.90
2008,04,12,00,39,8.90
2008,04,12,00,40,8.90
2008,04,12,00,41,8.90
2008,04,12,00,42,8.90
2008,04,12,00,43,8.90
2008,04,12,00,44,8.90
2008,04,12,00,45,8.90
2008,04,12,00,46,8.90
2008,04,12,00,47,8.90
2008,04,12,00,48,8.90
2008,04,12,00,49,8.90
2008,04,12,00,50,8.90
2008,04,12,00,51,8.90
2008,04,12,00,52,8.90
2008,04,12,00,53,8.90
2008,04,12,00,54,8.90
2008,04,12,00,55,8.90
2008,04,12,00,56,8.90
2008,04,12,00,57,8.90
2008,04,12,00,58,8.90
2008,04,12,00,59,8.90
2008,04,12,01,00,9.00
2008,04,12,01,01,9.00
2008,04,12,01,02,9.00
2008,04,12,01,03,9.00
2008,04,12,01,04,9.00
2008,04,12,01,05,9.00
2008,04,12,01,06,9.00
2008,04,12,01,07,9.00
2008,04,12,01,08,9.00
2008,04,12,01,09,9.00
2008,04,12,01,10,9.00
2008,04,12,01,11,9.00
2008,04,12,01,12,9.10
2008,04,12,01,13,9.10
2008,04,12,01,14,9.10
2008,04,12,01,15,9.10
2008,04,12,01,16,9.10
2008,04,12,01,17,9.10
2008,04,12,01,18,9.10
2008,04,12,01,19,9.10
2008,04,12,01,20,9.10
2008,04,12,01,21,9.10
2008,04,12,01,22,9.10
2008,04,12,01,23,9.10
2008,04,12,01,24,9.10
2008,04,12,01,25,9.10
2008,04,12,01,26,9.10
2008,04,12,01,27,9.10
2008,04,12,01,28,9.00
2008,04,12,01,29,9.00
2008,04,12,01,30,9.00
2008,04,12,01,31,9.00
2008,04,12,01,32,9.00
2008,04,12,01,33,9.00
2008,04,12,01,34,9.00
2008,04,12,01,35,9.00
2008,04,12,01,36,9.00
2008,04,12,01,37,9.00
2008,04,12,01,38,9.00
2008,04,12,01,39,9.00
2008,04,12,01,40,9.00
2008,04,12,01,41,9.00
2008,04,12,01,42,9.00
2008,04,12,01,43,9.00
2008,04,12,01,44,9.00
2008,04,12,01,45,9.00
2008,04,12,01,46,9.00
2008,04,12,01,47,9.00
2008,04,12,01,48,9.00
2008,04,12,01,49,9.00
2008,04,12,01,50,9.00
2008,04,12,01,51,9.00
2008,04,12,01,52,9.00
2008,04,12,01,53,9.00
2008,04,12,01,54,9.00
2008,04,12,01,55,9.00
2008,04,12,01,56,9.00
2008,04,12,01,57,9.00
2008,04,12,01,58,9.00
2008,04,12,01,59,9.00
2008,04,12,02,00,9.00
2008,04,12,02,01,9.00
2008,04,12,02,02,9.00
2008,04,12,02,03,9.00
2008,04,12,02,04,9.00
2008,04,12,02,05,9.00
2008,04,12,02,06,9.00
2008,04,12,02,07,9.00
2008,04,12,02,08,9.00
2008,04,12,02,09,9.00
2008,04,12,02,10,9.00
2008,04,12,02,11,9.00
2008,04,12,02,12,9.00
2008,04,12,02,13,9.00
2008,04,12,02,14,9.00
2008,04,12,02,15,9.00
2008,04,12,02,16,9.00
2008,04,12,02,17,9.00
2008,04,12,02,18,9.00
2008,04,12,02,19,9.00
2008,04,12,02,20,8.90
2008,04,12,02,21,8.90
2008,04,12,02,22,8.90
2008,04,12,02,23,8.90
2008,04,12,02,24,8.90
2008,04,12,02,25,8.90
2008,04,12,02,26,8.90
2008,04,12,02,27,8.90
2008,04,12,02,28,8.80
2008,04,12,02,29,8.80
2008,04,12,02,30,8.80
2008,04,12,02,31,8.80
2008,04,12,02,32,8.80
2008,04,12,02,33,8.80
2008,04,12,02,34,8.80
2008,04,12,02,35,8.80
2008,04,12,02,36,8.80
2008,04,12,02,37,8.80
2008,04,12,02,38,8.80
2008,04,12,02,39,8.80
2008,04,12,02,40,8.80
2008,04,12,02,41,8.80
2008,04,12,02,42,8.80
2008,04,12,02,43,8.80
2008,04,12,02,44,8.80
2008,04,12,02,45,8.80
2008,04,12,02,46,8.80
2008,04,12,02,47,8.80
2008,04,12,02,48,8.80
2008,04,12,02,49,8.70
2008,04,12,02,50,8.70
2008,04,12,02,51,8.70
2008,04,12,02,52,8.70
2008,04,12,02,53,8.70
2008,04,12,02,54,8.70
2008,04,12,02,55,8.70
2008,04,12,02,56,8.70
2008,04,12,02,57,8.70
2008,04,12,02,58,8.70
2008,04,12,02,59,8.70
2008,04,12,03,00,8.70
2008,04,12,03,01,8.70
2008,04,12,03,02,8.70
2008,04,12,03,03,8.70
2008,04,12,03,04,8.70
2008,04,12,03,05,8.70
2008,04,12,03,06,8.70
2008,04,12,03,07,8.70
2008,04,12,03,08,8.80
2008,04,12,03,09,8.80
2008,04,12,03,10,8.80
2008,04,12,03,11,8.80
2008,04,12,03,12,8.80
2008,04,12,03,13,8.80
2008,04,12,03,14,8.80
2008,04,12,03,15,8.80
2008,04,12,03,16,8.80
2008,04,12,03,17,8.80
2008,04,12,03,18,8.80
2008,04,12,03,19,8.80
2008,04,12,03,20,8.80
2008,04,12,03,21,8.80
2008,04,12,03,22,8.80
2008,04,12,03,23,8.80
2008,04,12,03,24,8.80
2008,04,12,03,25,8.70
2008,04,12,03,26,8.70
2008,04,12,03,27,8.70
2008,04,12,03,28,8.70
2008,04,12,03,29,8.70
2008,04,12,03,30,8.70
2008,04,12,03,31,8.70
2008,04,12,03,32,8.70
2008,04,12,03,33,8.70
2008,04,12,03,34,8.70
2008,04,12,03,35,8.70
2008,04,12,03,36,8.70
2008,04,12,03,37,8.70
2008,04,12,03,38,8.70
2008,04,12,03,39,8.70
2008,04,12,03,40,8.70
2008,04,12,03,41,8.70
2008,04,12,03,42,8.70
2008,04,12,03,43,8.70
2008,04,12,03,44,8.70
2008,04,12,03,45,8.70
2008,04,12,03,46,8.70
2008,04,12,03,47,8.70
2008,04,12,03,48,8.70
2008,04,12,03,49,8.60
2008,04,12,03,50,8.60
2008,04,12,03,51,8.60
2008,04,12,03,52,8.60
2008,04,12,03,53,8.60
2008,04,12,03,54,8.60
2008,04,12,03,55,8.60
2008,04,12,03,56,8.60
2008,04,12,03,57,8.60
2008,04,12,03,58,8.60
2008,04,12,03,59,8.50
2008,04,12,04,00,8.50
2008,04,12,04,01,8.50
2008,04,12,04,02,8.50
2008,04,12,04,03,8.50
2008,04,12,04,04,8.50
2008,04,12,04,05,8.50
2008,04,12,04,06,8.50
2008,04,12,04,07,8.50
2008,04,12,04,08,8.50
2008,04,12,04,09,8.50
2008,04,12,04,10,8.50
2008,04,12,04,11,8.50
2008,04,12,04,12,8.40
2008,04,12,04,13,8.40
2008,04,12,04,14,8.40
2008,04,12,04,15,8.40
2008,04,12,04,16,8.40
2008,04,12,04,17,8.50
2008,04,12,04,18,8.50
2008,04,12,04,19,8.50
2008,04,12,04,20,8.40
2008,04,12,04,21,8.40
2008,04,12,04,22,8.40
2008,04,12,04,23,8.40
2008,04,12,04,24,8.40
2008,04,12,04,25,8.40
2008,04,12,04,26,8.40
2008,04,12,04,27,8.40
2008,04,12,04,28,8.40
2008,04,12,04,29,8.30
2008,04,12,04,30,8.30
2008,04,12,04,31,8.30
2008,04,12,04,32,8.30
2008,04,12,04,33,8.20
2008,04,12,04,34,8.20
2008,04,12,04,35,8.20
2008,04,12,04,36,8.20
2008,04,12,04,37,8.20
2008,04,12,04,38,8.20
2008,04,12,04,39,8.20
2008,04,12,04,40,8.20
2008,04,12,04,41,8.20
2008,04,12,04,42,8.20
2008,04,12,04,43,8.20
2008,04,12,04,44,8.20
2008,04,12,04,45,8.20
2008,04,12,04,46,8.20
2008,04,12,04,47,8.20
2008,04,12,04,48,8.20
2008,04,12,04,49,8.20
2008,04,12,04,50,8.20
2008,04,12,04,51,8.10
2008,04,12,04,52,8.10
2008,04,12,04,53,8.10
2008,04,12,04,54,8.10
2008,04,12,04,55,8.10
2008,04,12,04,56,8.10
2008,04,12,04,57,8.10
2008,04,12,04,58,8.10
2008,04,12,04,59,8.10
2008,04,12,05,00,8.10
2008,04,12,05,01,8.10
2008,04,12,05,02,8.10
2008,04,12,05,03,8.10
2008,04,12,05,04,8.10
2008,04,12,05,05,8.10
2008,04,12,05,06,8.10
2008,04,12,05,07,8.10
2008,04,12,05,08,8.10
2008,04,12,05,09,8.00
2008,04,12,05,10,8.00
2008,04,12,05,11,8.00
2008,04,12,05,12,8.00
2008,04,12,05,13,8.00
2008,04,12,05,14,8.00
2008,04,12,05,15,8.00
2008,04,12,05,16,8.00
2008,04,12,05,17,8.00
2008,04,12,05,18,8.00
2008,04,12,05,19,8.00
2008,04,12,05,20,7.90
2008,04,12,05,21,7.90
2008,04,12,05,22,7.90
2008,04,12,05,23,7.90
2008,04,12,05,24,7.90
2008,04,12,05,25,7.90
2008,04,12,05,26,7.90
2008,04,12,05,27,7.90
2008,04,12,05,28,7.90
2008,04,12,05,29,7.90
2008,04,12,05,30,7.90
2008,04,12,05,31,7.90
2008,04,12,05,32,7.90
2008,04,12,05,33,7.90
2008,04,12,05,34,7.90
2008,04,12,05,35,7.90
2008,04,12,05,36,7.90
2008,04,12,05,37,7.90
2008,04,12,05,38,7.90
2008,04,12,05,39,7.90
2008,04,12,05,40,7.90
2008,04,12,05,41,7.90
2008,04,12,05,42,7.90
2008,04,12,05,43,7.90
2008,04,12,05,44,7.90
2008,04,12,05,45,7.90
2008,04,12,05,46,8.00
2008,04,12,05,47,8.00
2008,04,12,05,48,8.00
2008,04,12,05,49,8.00
2008,04,12,05,50,8.00
2008,04,12,05,51,8.00
2008,04,12,05,52,8.00
2008,04,12,05,53,8.00
2008,04,12,05,54,8.00
2008,04,12,05,55,8.00
2008,04,12,05,56,8.00
2008,04,12,05,57,8.00
2008,04,12,05,58,8.00
2008,04,12,05,59,8.00
2008,04,12,06,00,8.00
2008,04,12,06,01,8.00
2008,04,12,06,02,8.00
2008,04,12,06,03,8.00
2008,04,12,06,04,8.00
2008,04,12,06,05,8.00
2008,04,12,06,06,8.00
2008,04,12,06,07,8.00
2008,04,12,06,08,8.00
2008,04,12,06,09,8.00
2008,04,12,06,10,8.00
2008,04,12,06,11,8.00
2008,04,12,06,12,8.00
2008,04,12,06,13,8.00
2008,04,12,06,14,8.00
2008,04,12,06,15,8.00
2008,04,12,06,16,8.00
2008,04,12,06,17,8.00
2008,04,12,06,18,8.00
2008,04,12,06,19,8.00
2008,04,12,06,20,8.00
2008,04,12,06,21,8.00
2008,04,12,06,22,8.00
2008,04,12,06,23,8.00
2008,04,12,06,24,8.00
2008,04,12,06,25,8.00
2008,04,12,06,26,8.00
2008,04,12,06,27,8.00
2008,04,12,06,28,8.00
2008,04,12,06,29,8.00
2008,04,12,06,30,8.00
2008,04,12,06,31,8.00
2008,04,12,06,32,8.00
2008,04,12,06,33,8.00
2008,04,12,06,34,8.10
2008,04,12,06,35,8.10
2008,04,12,06,36,8.10
2008,04,12,06,37,8.10
2008,04,12,06,38,8.10
2008,04,12,06,39,8.10
2008,04,12,06,40,8.10
2008,04,12,06,41,8.10
2008,04,12,06,42,8.10
2008,04,12,06,43,8.10
2008,04,12,06,44,8.10
2008,04,12,06,45,8.10
2008,04,12,06,46,8.10
2008,04,12,06,47,8.10
2008,04,12,06,48,8.10
2008,04,12,06,49,8.10
2008,04,12,06,50,8.10
2008,04,12,06,51,8.10
2008,04,12,06,52,8.10
2008,04,12,06,53,8.10
2008,04,12,06,54,8.10
2008,04,12,06,55,8.10
2008,04,12,06,56,8.10
2008,04,12,06,57,8.20
2008,04,12,06,58,8.20
2008,04,12,06,59,8.20
2008,04,12,07,00,8.20
2008,04,12,07,01,8.20
2008,04,12,07,02,8.20
2008,04,12,07,03,8.20
2008,04,12,07,04,8.20
2008,04,12,07,05,8.20
2008,04,12,07,06,8.30
2008,04,12,07,07,8.30
2008,04,12,07,08,8.30
2008,04,12,07,09,8.30
2008,04,12,07,10,8.40
2008,04,12,07,11,8.40
2008,04,12,07,12,8.40
2008,04,12,07,13,8.40
2008,04,12,07,14,8.50
2008,04,12,07,15,8.50
2008,04,12,07,16,8.50
2008,04,12,07,17,8.60
2008,04,12,07,18,8.60
2008,04,12,07,19,8.60
2008,04,12,07,20,8.70
2008,04,12,07,21,8.70
2008,04,12,07,22,8.70
2008,04,12,07,23,8.70
2008,04,12,07,24,8.70
2008,04,12,07,25,8.80
2008,04,12,07,26,8.80
2008,04,12,07,27,8.80
2008,04,12,07,28,8.90
2008,04,12,07,29,8.90
2008,04,12,07,30,8.90
2008,04,12,07,31,9.00
2008,04,12,07,32,9.00
2008,04,12,07,33,9.00
2008,04,12,07,34,9.10
2008,04,12,07,35,9.10
2008,04,12,07,36,9.10
2008,04,12,07,37,9.10
2008,04,12,07,38,9.10
2008,04,12,07,39,9.10
2008,04,12,07,40,9.20
2008,04,12,07,41,9.20
2008,04,12,07,42,9.20
2008,04,12,07,43,9.20
2008,04,12,07,44,9.20
2008,04,12,07,45,9.20
2008,04,12,07,46,9.20
2008,04,12,07,47,9.20
2008,04,12,07,48,9.20
2008,04,12,07,49,9.30
2008,04,12,07,50,9.30
2008,04,12,07,51,9.40
2008,04,12,07,52,9.40
2008,04,12,07,53,9.50
2008,04,12,07,54,9.50
2008,04,12,07,55,9.50
2008,04,12,07,56,9.50
2008,04,12,07,57,9.60
2008,04,12,07,58,9.60
2008,04,12,07,59,9.70
2008,04,12,08,00,9.70
2008,04,12,08,01,9.70
2008,04,12,08,02,9.70
2008,04,12,08,03,9.80
2008,04,12,08,04,9.80
2008,04,12,08,05,9.90
2008,04,12,08,06,9.90
2008,04,12,08,07,9.90
2008,04,12,08,08,9.90
2008,04,12,08,09,9.90
2008,04,12,08,10,9.90
2008,04,12,08,11,9.90
2008,04,12,08,12,9.90
2008,04,12,08,13,9.90
2008,04,12,08,14,9.90
2008,04,12,08,15,9.90
2008,04,12,08,16,9.90
2008,04,12,08,17,9.90
2008,04,12,08,18,9.90
2008,04,12,08,19,9.90
2008,04,12,08,20,9.90
2008,04,12,08,21,9.90
2008,04,12,08,22,9.90
2008,04,12,08,23,9.90
2008,04,12,08,24,9.90
2008,04,12,08,25,9.90
2008,04,12,08,26,9.80
2008,04,12,08,27,9.80
2008,04,12,08,28,9.80
2008,04,12,08,29,9.80
2008,04,12,08,30,9.80
2008,04,12,08,31,9.80
2008,04,12,08,32,9.80
2008,04,12,08,33,9.80
2008,04,12,08,34,9.90
2008,04,12,08,35,9.90
2008,04,12,08,36,9.90
2008,04,12,08,37,9.90
2008,04,12,08,38,9.90
2008,04,12,08,39,9.90
2008,04,12,08,40,9.90
2008,04,12,08,41,9.90
2008,04,12,08,42,9.90
2008,04,12,08,43,9.90
2008,04,12,08,44,10.10
2008,04,12,08,45,10.10
2008,04,12,08,46,10.10
2008,04,12,08,47,10.10
2008,04,12,08,48,10.10
2008,04,12,08,49,10.10
2008,04,12,08,50,10.10
2008,04,12,08,51,10.10
2008,04,12,08,52,10.10
2008,04,12,08,53,10.10
2008,04,12,08,54,10.20
2008,04,12,08,55,10.20
2008,04,12,08,56,10.10
2008,04,12,08,57,10.10
2008,04,12,08,58,10.10
2008,04,12,08,59,10.20
2008,04,12,09,00,10.20
2008,04,12,09,01,10.20
2008,04,12,09,02,10.20
2008,04,12,09,03,10.20
2008,04,12,09,04,10.20
2008,04,12,09,05,10.20
2008,04,12,09,06,10.20
2008,04,12,09,07,10.20
2008,04,12,09,08,10.20
2008,04,12,09,09,10.30
2008,04,12,09,10,10.30
2008,04,12,09,11,10.30
2008,04,12,09,12,10.40
2008,04,12,09,13,10.40
2008,04,12,09,14,10.40
2008,04,12,09,15,10.50
2008,04,12,09,16,10.40
2008,04,12,09,17,10.40
2008,04,12,09,18,10.40
2008,04,12,09,19,10.40
2008,04,12,09,20,10.40
2008,04,12,09,21,10.40
2008,04,12,09,22,10.40
2008,04,12,09,23,10.40
2008,04,12,09,24,10.40
2008,04,12,09,25,10.40
2008,04,12,09,26,10.40
2008,04,12,09,27,10.40
2008,04,12,09,28,10.40
2008,04,12,09,29,10.40
2008,04,12,09,30,10.50
2008,04,12,09,31,10.60
2008,04,12,09,32,10.60
2008,04,12,09,33,10.70
2008,04,12,09,34,10.80
2008,04,12,09,35,10.80
2008,04,12,09,36,10.90
2008,04,12,09,37,10.90
2008,04,12,09,38,10.90
2008,04,12,09,39,10.90
2008,04,12,09,40,10.90
2008,04,12,09,41,10.90
2008,04,12,09,42,10.90
2008,04,12,09,43,10.90
2008,04,12,09,44,10.90
2008,04,12,09,45,11.10
2008,04,12,09,46,11.10
2008,04,12,09,47,11.10
2008,04,12,09,48,11.10
2008,04,12,09,49,11.10
2008,04,12,09,50,11.10
2008,04,12,09,51,11.10
2008,04,12,09,52,11.10
2008,04,12,09,53,11.10
2008,04,12,09,54,11.20
2008,04,12,09,55,11.20
2008,04,12,09,56,11.20
2008,04,12,09,57,11.30
2008,04,12,09,58,11.30
2008,04,12,09,59,11.30
2008,04,12,10,00,11.30
2008,04,12,10,01,11.30
2008,04,12,10,02,11.40
2008,04,12,10,03,11.40
2008,04,12,10,04,11.40
2008,04,12,10,05,11.40
2008,04,12,10,06,11.40
2008,04,12,10,07,11.60
2008,04,12,10,08,11.60
2008,04,12,10,09,11.60
2008,04,12,10,10,11.70
2008,04,12,10,11,11.70
2008,04,12,10,12,11.70
2008,04,12,10,13,11.70
2008,04,12,10,14,11.70
2008,04,12,10,15,11.70
2008,04,12,10,16,11.80
2008,04,12,10,17,11.80
2008,04,12,10,18,11.80
2008,04,12,10,19,11.80
2008,04,12,10,20,11.80
2008,04,12,10,21,11.80
2008,04,12,10,22,11.80
2008,04,12,10,23,11.80
2008,04,12,10,24,11.80
2008,04,12,10,25,11.80
2008,04,12,10,26,11.80
2008,04,12,10,27,11.90
2008,04,12,10,28,11.90
2008,04,12,10,29,11.90
2008,04,12,10,30,11.90
2008,04,12,10,31,11.90
2008,04,12,10,32,11.90
2008,04,12,10,33,12.00
2008,04,12,10,34,12.00
2008,04,12,10,35,12.00
2008,04,12,10,36,11.90
2008,04,12,10,37,11.80
2008,04,12,10,38,11.80
2008,04,12,10,39,11.80
2008,04,12,10,40,11.90
2008,04,12,10,41,11.90
2008,04,12,10,42,12.00
2008,04,12,10,43,12.00
2008,04,12,10,44,12.00
2008,04,12,10,45,12.00
2008,04,12,10,46,12.10
2008,04,12,10,47,12.20
2008,04,12,10,48,12.20
2008,04,12,10,49,12.20
2008,04,12,10,50,12.20
2008,04,12,10,51,12.20
2008,04,12,10,52,12.20
2008,04,12,10,53,12.20
2008,04,12,10,54,12.20
2008,04,12,10,55,12.20
2008,04,12,10,56,12.30
2008,04,12,10,57,12.30
2008,04,12,10,58,12.40
2008,04,12,10,59,12.40
2008,04,12,11,00,12.50
2008,04,12,11,01,12.40
2008,04,12,11,02,12.30
2008,04,12,11,03,12.30
2008,04,12,11,04,12.30
2008,04,12,11,05,12.30
2008,04,12,11,06,12.40
2008,04,12,11,07,12.40
2008,04,12,11,08,12.40
2008,04,12,11,09,12.50
2008,04,12,11,10,12.60
2008,04,12,11,11,12.60
2008,04,12,11,12,12.70
2008,04,12,11,13,12.70
2008,04,12,11,14,12.70
2008,04,12,11,15,12.60
2008,04,12,11,16,12.70
2008,04,12,11,17,12.70
2008,04,12,11,18,12.80
2008,04,12,11,19,12.80
2008,04,12,11,20,12.80
2008,04,12,11,21,12.80
2008,04,12,11,22,12.70
2008,04,12,11,23,12.70
2008,04,12,11,24,12.80
2008,04,12,11,25,12.80
2008,04,12,11,26,12.90
2008,04,12,11,27,13.00
2008,04,12,11,28,13.00
2008,04,12,11,29,13.00
2008,04,12,11,30,13.10
2008,04,12,11,31,13.10
2008,04,12,11,32,13.10
2008,04,12,11,33,13.00
2008,04,12,11,34,12.90
2008,04,12,11,35,12.80
2008,04,12,11,36,12.80
2008,04,12,11,37,12.70
2008,04,12,11,38,12.60
2008,04,12,11,39,12.60
2008,04,12,11,40,12.50
2008,04,12,11,41,12.50
2008,04,12,11,42,12.60
2008,04,12,11,43,12.70
2008,04,12,11,44,12.70
2008,04,12,11,45,12.80
2008,04,12,11,46,12.90
2008,04,12,11,47,13.00
2008,04,12,11,48,13.10
2008,04,12,11,49,13.20
2008,04,12,11,50,13.30
2008,04,12,11,51,13.30
2008,04,12,11,52,13.30
2008,04,12,11,53,13.30
2008,04,12,11,54,13.40
2008,04,12,11,55,13.50
2008,04,12,11,56,13.50
2008,04,12,11,57,13.50
2008,04,12,11,58,13.50
2008,04,12,11,59,13.60
2008,04,12,12,00,13.50
2008,04,12,12,01,13.50
2008,04,12,12,02,13.50
2008,04,12,12,03,13.60
2008,04,12,12,04,13.60
2008,04,12,12,05,13.60
2008,04,12,12,06,13.60
2008,04,12,12,07,13.70
2008,04,12,12,08,13.70
2008,04,12,12,09,13.90
2008,04,12,12,10,13.90
2008,04,12,12,11,14.00
2008,04,12,12,12,14.00
2008,04,12,12,13,14.00
2008,04,12,12,14,13.90
2008,04,12,12,15,13.90
2008,04,12,12,16,13.90
2008,04,12,12,17,13.80
2008,04,12,12,18,13.70
2008,04,12,12,19,13.70
2008,04,12,12,20,13.70
2008,04,12,12,21,13.70
2008,04,12,12,22,13.70
2008,04,12,12,23,13.80
2008,04,12,12,24,13.90
2008,04,12,12,25,14.00
2008,04,12,12,26,14.10
2008,04,12,12,27,14.20
2008,04,12,12,28,14.30
2008,04,12,12,29,14.40
2008,04,12,12,30,14.50
2008,04,12,12,31,14.60
2008,04,12,12,32,14.70
2008,04,12,12,33,14.80
2008,04,12,12,34,14.90
2008,04,12,12,35,15.00
2008,04,12,12,36,15.00
2008,04,12,12,37,15.10
2008,04,12,12,38,15.20
2008,04,12,12,39,15.20
2008,04,12,12,40,15.30
2008,04,12,12,41,15.40
2008,04,12,12,42,15.50
2008,04,12,12,43,15.60
2008,04,12,12,44,15.60
2008,04,12,12,45,15.70
2008,04,12,12,46,15.70
2008,04,12,12,47,15.80
2008,04,12,12,48,15.80
2008,04,12,12,49,15.80
2008,04,12,12,50,15.80
2008,04,12,12,51,15.80
2008,04,12,12,52,15.80
2008,04,12,12,53,15.80
2008,04,12,12,54,15.80
2008,04,12,12,55,15.70
2008,04,12,12,56,15.70
2008,04,12,12,57,15.60
2008,04,12,12,58,15.60
2008,04,12,12,59,15.50
2008,04,12,13,00,15.50
2008,04,12,13,01,15.50
2008,04,12,13,02,15.40
2008,04,12,13,03,15.40
2008,04,12,13,04,15.40
2008,04,12,13,05,15.40
2008,04,12,13,06,15.40
2008,04,12,13,07,15.40
2008,04,12,13,08,15.30
2008,04,12,13,09,15.30
2008,04,12,13,10,15.30
2008,04,12,13,11,15.30
2008,04,12,13,12,15.30
2008,04,12,13,13,15.30
2008,04,12,13,14,15.30
2008,04,12,13,15,15.30
2008,04,12,13,16,15.30
2008,04,12,13,17,15.30
2008,04,12,13,18,15.30
2008,04,12,13,19,15.30
2008,04,12,13,20,15.30
2008,04,12,13,21,15.30
2008,04,12,13,22,15.30
2008,04,12,13,23,15.30
2008,04,12,13,24,15.30
2008,04,12,13,25,15.30
2008,04,12,13,26,15.30
2008,04,12,13,27,15.30
2008,04,12,13,28,15.30
2008,04,12,13,29,15.30
2008,04,12,13,30,15.30
2008,04,12,13,31,15.30
2008,04,12,13,32,15.40
2008,04,12,13,33,15.40
2008,04,12,13,34,15.50
2008,04,12,13,35,15.60
2008,04,12,13,36,15.60
2008,04,12,13,37,15.60
2008,04,12,13,38,15.50
2008,04,12,13,39,15.50
2008,04,12,13,40,15.60
2008,04,12,13,41,15.60
2008,04,12,13,42,15.60
2008,04,12,13,43,15.60
2008,04,12,13,44,15.70
2008,04,12,13,45,15.80
2008,04,12,13,46,15.80
2008,04,12,13,47,15.90
2008,04,12,13,48,16.00
2008,04,12,13,49,16.10
2008,04,12,13,50,16.20
2008,04,12,13,51,16.30
2008,04,12,13,52,16.30
2008,04,12,13,53,16.40
2008,04,12,13,54,16.50
2008,04,12,13,55,16.70
2008,04,12,13,56,16.70
2008,04,12,13,57,16.80
2008,04,12,13,58,16.90
2008,04,12,13,59,16.90
2008,04,12,14,00,17.00
2008,04,12,14,01,17.10
2008,04,12,14,02,17.20
2008,04,12,14,03,17.20
2008,04,12,14,04,17.30
2008,04,12,14,05,17.30
2008,04,12,14,06,17.30
2008,04,12,14,07,17.40
2008,04,12,14,08,17.40
2008,04,12,14,09,17.40
2008,04,12,14,10,17.40
2008,04,12,14,11,17.50
2008,04,12,14,12,17.50
2008,04,12,14,13,17.40
2008,04,12,14,14,17.30
2008,04,12,14,15,17.30
2008,04,12,14,16,17.30
2008,04,12,14,17,17.30
2008,04,12,14,18,17.30
2008,04,12,14,19,17.40
2008,04,12,14,20,17.40
2008,04,12,14,21,17.50
2008,04,12,14,22,17.50
2008,04,12,14,23,17.50
2008,04,12,14,24,17.60
2008,04,12,14,25,17.60
2008,04,12,14,26,17.60
2008,04,12,14,27,17.70
2008,04,12,14,28,17.80
2008,04,12,14,29,17.90
2008,04,12,14,30,17.90
2008,04,12,14,31,17.80
2008,04,12,14,32,17.90
2008,04,12,14,33,17.90
2008,04,12,14,34,18.00
2008,04,12,14,35,18.10
2008,04,12,14,36,18.20
2008,04,12,14,37,18.30
2008,04,12,14,38,18.40
2008,04,12,14,39,18.50
2008,04,12,14,40,18.50
2008,04,12,14,41,18.60
2008,04,12,14,42,18.70
2008,04,12,14,43,18.70
2008,04,12,14,44,18.70
2008,04,12,14,45,18.70
2008,04,12,14,46,18.60
2008,04,12,14,47,18.50
2008,04,12,14,48,18.40
2008,04,12,14,49,18.40
2008,04,12,14,50,18.40
2008,04,12,14,51,18.50
2008,04,12,14,52,18.50
2008,04,12,14,53,18.50
2008,04,12,14,54,18.60
2008,04,12,14,55,18.70
2008,04,12,14,56,18.70
2008,04,12,14,57,18.70
2008,04,12,14,58,18.60
2008,04,12,14,59,18.50
2008,04,12,15,00,18.40
2008,04,12,15,01,18.50
2008,04,12,15,02,18.50
2008,04,12,15,03,18.60
2008,04,12,15,04,18.70
2008,04,12,15,05,18.80
2008,04,12,15,06,18.90
2008,04,12,15,07,18.90
2008,04,12,15,08,18.90
2008,04,12,15,09,19.10
2008,04,12,15,10,19.00
2008,04,12,15,11,18.90
2008,04,12,15,12,18.90
2008,04,12,15,13,18.90
2008,04,12,15,14,19.00
2008,04,12,15,15,19.10
2008,04,12,15,16,19.10
2008,04,12,15,17,19.10
2008,04,12,15,18,19.10
2008,04,12,15,19,19.10
2008,04,12,15,20,19.10
2008,04,12,15,21,19.10
2008,04,12,15,22,19.00
2008,04,12,15,23,18.90
2008,04,12,15,24,18.90
2008,04,12,15,25,18.90
2008,04,12,15,26,18.90
2008,04,12,15,27,18.90
2008,04,12,15,28,18.90
2008,04,12,15,29,18.90
2008,04,12,15,30,18.90
2008,04,12,15,31,18.80
2008,04,12,15,32,18.70
2008,04,12,15,33,18.70
2008,04,12,15,34,18.70
2008,04,12,15,35,18.80
2008,04,12,15,36,18.80
2008,04,12,15,37,18.80
2008,04,12,15,38,18.80
2008,04,12,15,39,18.90
2008,04,12,15,40,18.80
2008,04,12,15,41,18.80
2008,04,12,15,42,18.80
2008,04,12,15,43,18.80
2008,04,12,15,44,18.80
2008,04,12,15,45,18.80
2008,04,12,15,46,18.90
2008,04,12,15,47,18.90
2008,04,12,15,48,18.80
2008,04,12,15,49,18.70
2008,04,12,15,50,18.50
2008,04,12,15,51,18.30
2008,04,12,15,52,18.30
2008,04,12,15,53,18.30
2008,04,12,15,54,18.40
2008,04,12,15,55,18.50
2008,04,12,15,56,18.60
2008,04,12,15,57,18.70
2008,04,12,15,58,18.60
2008,04,12,15,59,18.50
2008,04,12,16,00,18.40
2008,04,12,16,01,18.40
2008,04,12,16,02,18.30
2008,04,12,16,03,18.20
2008,04,12,16,04,18.10
2008,04,12,16,05,18.00
2008,04,12,16,06,17.90
2008,04,12,16,07,17.90
2008,04,12,16,08,17.90
2008,04,12,16,09,18.10
2008,04,12,16,10,18.20
2008,04,12,16,11,18.30
2008,04,12,16,12,18.40
2008,04,12,16,13,18.40
2008,04,12,16,14,18.50
2008,04,12,16,15,18.20
2008,04,12,16,16,17.10
2008,04,12,16,17,16.10
2008,04,12,16,18,15.30
2008,04,12,16,19,14.60
2008,04,12,16,20,14.00
2008,04,12,16,21,13.60
2008,04,12,16,22,13.30
2008,04,12,16,23,13.10
2008,04,12,16,24,13.00
2008,04,12,16,25,12.90
2008,04,12,16,26,12.80
2008,04,12,16,27,12.80
2008,04,12,16,28,12.70
2008,04,12,16,29,12.70
2008,04,12,16,30,12.60
2008,04,12,16,31,12.60
2008,04,12,16,32,12.60
2008,04,12,16,33,12.60
2008,04,12,16,34,12.60
2008,04,12,16,35,12.60
2008,04,12,16,36,12.70
2008,04,12,16,37,12.80
2008,04,12,16,38,12.90
2008,04,12,16,39,13.00
2008,04,12,16,40,13.20
2008,04,12,16,41,13.30
2008,04,12,16,42,13.30
2008,04,12,16,43,13.20
2008,04,12,16,44,13.20
2008,04,12,16,45,13.10
2008,04,12,16,46,12.90
2008,04,12,16,47,12.80
2008,04,12,16,48,12.90
2008,04,12,16,49,12.90
2008,04,12,16,50,13.00
2008,04,12,16,51,13.10
2008,04,12,16,52,13.10
2008,04,12,16,53,13.20
2008,04,12,16,54,13.30
2008,04,12,16,55,13.30
2008,04,12,16,56,13.40
2008,04,12,16,57,13.40
2008,04,12,16,58,13.30
2008,04,12,16,59,13.30
2008,04,12,17,00,13.20
2008,04,12,17,01,13.20
2008,04,12,17,02,13.10
2008,04,12,17,03,13.00
2008,04,12,17,04,13.00
2008,04,12,17,05,12.90
2008,04,12,17,06,12.80
2008,04,12,17,07,12.90
2008,04,12,17,08,13.00
2008,04,12,17,09,13.10
2008,04,12,17,10,13.10
2008,04,12,17,11,13.20
2008,04,12,17,12,13.20
2008,04,12,17,13,13.30
2008,04,12,17,14,13.30
2008,04,12,17,15,13.40
2008,04,12,17,16,13.50
2008,04,12,17,17,13.50
2008,04,12,17,18,13.50
2008,04,12,17,19,13.50
2008,04,12,17,20,13.40
2008,04,12,17,21,13.30
2008,04,12,17,22,13.30
2008,04,12,17,23,13.30
2008,04,12,17,24,13.30
2008,04,12,17,25,13.30
2008,04,12,17,26,13.30
2008,04,12,17,27,13.40
2008,04,12,17,28,13.40
2008,04,12,17,29,13.50
2008,04,12,17,30,13.50
2008,04,12,17,31,13.50
2008,04,12,17,32,13.50
2008,04,12,17,33,13.50
2008,04,12,17,34,13.50
2008,04,12,17,35,13.40
2008,04,12,17,36,13.30
2008,04,12,17,37,13.30
2008,04,12,17,38,13.30
2008,04,12,17,39,13.20
2008,04,12,17,40,13.20
2008,04,12,17,41,13.30
2008,04,12,17,42,13.30